Location: Beutels
(47.8767°N, 9.8584°E)
Time: 01:57:49
(UTC+00:00)

Cosmos 1900 - Pass Details

Date: 19 May 2025
Orbit: 677 x 738 km, 66.1° (Epoch: 23 June)

Event Time Altitude Azimuth Distance (km) Brightness Sun altitude
Rises 20:32:33 0° 323° (NW) 3,155 9.8 -12.8°
Reaches altitude 10° 20:34:55 10° 323° (NW) 2,237 8.4 -13.1°
Maximum altitude 20:40:03 82° 236° (SW) 748 4.4 -13.6°
Enters shadow 20:43:32 21° 150° (SSE) 1,621 5.6 -13.9°
